sat.trackr.live / text

‹ back to catalog

STARLINK-34604

NORAD 64801 · 2025-150M

PAYLOAD ACTIVE UNKNOWN

§ Identity

Operator
Country
US
Launch date
2025-07-16
Launch site
AFWTR
Launch vehicle
Mass (kg)
RCS (m²)

Purposes: comms

External: N2YO · Heavens-Above · Gunter

§ Orbital elements

Epoch: 2026-09-20T13:01:32.049120Z

Period
96.11 min
Inclination
70.0027°
Eccentricity
0.0003343
Mean motion
14.98334240 rev/d
Perigee alt
569.7 km
Apogee alt
574.4 km
Semi-major
6,950.2 km
B*
1.5878e-4
RAAN
3.1728°
Arg perigee
269.9529°
Mean anomaly
90.1247°
Rev number
6,570

§ Raw data

STARLINK-346041 64801U 25150M   26263.54273205  .00001802  00000+0  15878-3 0  99912 64801  70.0027   3.1728 0003343 269.9529  90.1247 14.98334240 65702

JSON: /api/v1/satellites/64801 · /tle

For live sub-satellite position, see the globe view (requires WebGL).

§ Visibility from observer

Set your observer location to see the next 7 days of passes ≥ 10°. The values pass through the URL so the page stays shareable.

No JS? Fill the form by hand. The geolocation button needs JavaScript.